QPF
0.00 0.00 0.00 0.00 0.00 0.00 0.00 0.00 0.00 0.01 0.02 0.01 0.05 0.20 0.32 0.23 0.19 0.17 0.22 0.34 0.39 0.46 0.51 0.59 0.83 0.74 0.70 0.71 0.74 0.66 0.72 0.83 0.62 0.41 0.35 0.32 0.35 0.33 0.19 0.20 0.17 0.08 0.07 0.11
0.00 0.00 0.00 0.00 0.00 0.00 0.00 0.00 0.00 0.00 0.00 0.00 0.04 0.11 0.25 0.34 0.35 0.43 0.50 0.56 0.54 0.52 0.49 0.49 0.50 0.54 0.43 0.35 0.29 0.23 0.28 0.36 0.44 0.50 0.44 0.46 0.44 0.35 0.22 0.17 0.20 0.17 0.08 0.05
0.00 0.00 0.00 0.00 0.00 0.00 0.00 0.00 0.00 0.00 0.00 0.00 0.02 0.08 0.16 0.29 0.31 0.30 0.29 0.23 0.19 0.21 0.27 0.32 0.38 0.37 0.29 0.21 0.10 0.04 0.06 0.11 0.15 0.18 0.15 0.18 0.16 0.18 0.18 0.13 0.13 0.19 0.29 0.08
0.00 0.00 0.00 0.00 0.00 0.00 0.00 0.00 0.00 0.00 0.01 0.01 0.00 0.01 0.02 0.03 0.06 0.07 0.06 0.05 0.05 0.07 0.06 0.05 0.04 0.03 0.03 0.01 0.01 0.01 0.00 0.00 0.01 0.01 0.02 0.02 0.01 0.01 0.02 0.05 0.11 0.06 0.10 0.14
0.00 0.00 0.00 0.00 0.00 0.00 0.00 0.00 0.00 0.00 0.01 0.01 0.00 0.00 0.00 0.00 0.00 0.00 0.00 0.00 0.00 0.00 0.00 0.00 0.00 0.00 0.00 0.01 0.01 0.01 0.00 0.00 0.01 0.01 0.00 0.00 0.00 0.00 0.00 0.00 0.01 0.03 0.03 0.06
0.00 0.00 0.00 0.00 0.00 0.00 0.00 0.00 0.00 0.00 0.00 0.00 0.00 0.00 0.00 0.00 0.00 0.00 0.00 0.00 0.00 0.00 0.00 0.00 0.00 0.00 0.00 0.00 0.00 0.00 0.00 0.00 0.00 0.00 0.00 0.00 0.00 0.00 0.00 0.00 0.00 0.00 0.00 0.00
0.00 0.00 0.00 0.00 0.00 0.00 0.00 0.00 0.00 0.00 0.00 0.00 0.00 0.00 0.00 0.00 0.00 0.00 0.00 0.00 0.00 0.00 0.00 0.00 0.00 0.00 0.00 0.00 0.00 0.00 0.00 0.00 0.00 0.00 0.00 0.00 0.00 0.00 0.00 0.00 0.00 0.00 0.00 0.00
0.00 0.00 0.00 0.00 0.00 0.00 0.00 0.00 0.00 0.00 0.00 0.00 0.00 0.00 0.00 0.00 0.00 0.00 0.00 0.00 0.00 0.00 0.00 0.00 0.00 0.00 0.00 0.00 0.00 0.00 0.00 0.00 0.00 0.00 0.00 0.00 0.00 0.00 0.00 0.00 0.00 0.00 0.00 0.00
0.00 0.00 0.00 0.00 0.00 0.00 0.00 0.00 0.00 0.00 0.00 0.00 0.00 0.00 0.00 0.00 0.00 0.00 0.00 0.00 0.00 0.00 0.00 0.00 0.00 0.00 0.00 0.00 0.00 0.00 0.00 0.00 0.00 0.00 0.00 0.00 0.00 0.00 0.00 0.00 0.00 0.00 0.00 0.00
0.00 0.00 0.00 0.00 0.00 0.00 0.00 0.00 0.00 0.00 0.00 0.00 0.00 0.00 0.00 0.00 0.00 0.00 0.00 0.00 0.00 0.00 0.00 0.00 0.00 0.00 0.00 0.00 0.00 0.00 0.00 0.00 0.00 0.00 0.00 0.00 0.00 0.00 0.00 0.00 0.00 0.00 0.00 0.00
0.00 0.00 0.00 0.00 0.00 0.00 0.00 0.00 0.00 0.00 0.00 0.00 0.00 0.00 0.00 0.00 0.00 0.00 0.00 0.00 0.00 0.00 0.00 0.00 0.00 0.00 0.00 0.00 0.00 0.00 0.00 0.00 0.00 0.00 0.00 0.00 0.00 0.00 0.00 0.00 0.00 0.00 0.00 0.00
0.00 0.00 0.00 0.00 0.00 0.00 0.00 0.00 0.00 0.00 0.00 0.00 0.00 0.00 0.00 0.00 0.00 0.00 0.00 0.00 0.00 0.00 0.00 0.00 0.00 0.00 0.00 0.00 0.00 0.00 0.00 0.00 0.00 0.00 0.00 0.00 0.00 0.00 0.00 0.00 0.00 0.00 0.00 0.00
0.00 0.00 0.00 0.00 0.00 0.00 0.00 0.00 0.00 0.00 0.00 0.00 0.00 0.00 0.00 0.00 0.00 0.00 0.00 0.00 0.00 0.00 0.00 0.00 0.00 0.00 0.00 0.00 0.00 0.00 0.00 0.00 0.00 0.00 0.00 0.00 0.00 0.00 0.00 0.00 0.00 0.00 0.00 0.00
0.00 0.00 0.00 0.00 0.00 0.00 0.00 0.00 0.00 0.00 0.00 0.00 0.00 0.00 0.00 0.00 0.00 0.00 0.00 0.00 0.00 0.00 0.00 0.00 0.00 0.00 0.00 0.00 0.00 0.00 0.00 0.00 0.00 0.00 0.00 0.00 0.00 0.00 0.00 0.00 0.00 0.00 0.00 0.00
0.00 0.00 0.00 0.00 0.00 0.00 0.00 0.00 0.00 0.00 0.00 0.00 0.00 0.00 0.00 0.00 0.00 0.00 0.00 0.00 0.00 0.00 0.00 0.00 0.00 0.00 0.00 0.00 0.00 0.00 0.00 0.00 0.00 0.00 0.00 0.00 0.00 0.00 0.00 0.00 0.00 0.00 0.00 0.00
0.00 0.00 0.00 0.00 0.00 0.00 0.00 0.00 0.00 0.00 0.00 0.00 0.00 0.00 0.00 0.00 0.00 0.00 0.00 0.00 0.00 0.00 0.00 0.00 0.00 0.00 0.00 0.00 0.00 0.00 0.00 0.00 0.00 0.00 0.00 0.00 0.00 0.00 0.00 0.00 0.00 0.00 0.00 0.00
0.00 0.00 0.00 0.00 0.00 0.00 0.00 0.00 0.00 0.00 0.00 0.00 0.00 0.00 0.00 0.00 0.00 0.00 0.00 0.00 0.00 0.00 0.00 0.00 0.00 0.00 0.00 0.00 0.00 0.00 0.00 0.00 0.00 0.00 0.00 0.00 0.00 0.00 0.00 0.00 0.00 0.00 0.00 0.00
0.00 0.00 0.00 0.00 0.00 0.00 0.00 0.00 0.00 0.00 0.00 0.00 0.00 0.00 0.00 0.00 0.00 0.00 0.00 0.00 0.00 0.00 0.00 0.00 0.00 0.00 0.00 0.00 0.00 0.00 0.00 0.00 0.00 0.00 0.00 0.00 0.00 0.00 0.00 0.00 0.00 0.00 0.00 0.00
0.00 0.00 0.00 0.00 0.00 0.00 0.00 0.00 0.00 0.00 0.00 0.00 0.00 0.00 0.00 0.00 0.00 0.00 0.00 0.00 0.00 0.00 0.00 0.00 0.00 0.00 0.00 0.00 0.00 0.00 0.00 0.00 0.00 0.00 0.00 0.00 0.00 0.00 0.00 0.00 0.00 0.00 0.00 0.00
0.00 0.00 0.00 0.00 0.00 0.00 0.00 0.00 0.00 0.00 0.00 0.00 0.00 0.00 0.00 0.00 0.00 0.00 0.00 0.00 0.00 0.00 0.00 0.00 0.00 0.00 0.00 0.00 0.00 0.00 0.00 0.00 0.00 0.00 0.00 0.00 0.00 0.00 0.00 0.00 0.00 0.00 0.00 0.00
0.00 0.00 0.00 0.00 0.00 0.00 0.00 0.00 0.00 0.00 0.00 0.00 0.00 0.00 0.00 0.00 0.00 0.00 0.00 0.00 0.00 0.00 0.00 0.00 0.00 0.00 0.00 0.00 0.00 0.00 0.00 0.00 0.00 0.00 0.00 0.00 0.00 0.00 0.00 0.00 0.00 0.00 0.00 0.00
0.00 0.00 0.00 0.00 0.00 0.00 0.00 0.00 0.00 0.00 0.00 0.00 0.00 0.00 0.00 0.00 0.00 0.00 0.00 0.00 0.00 0.00 0.00 0.00 0.00 0.00 0.00 0.00 0.00 0.00 0.00 0.00 0.00 0.00 0.00 0.00 0.00 0.00 0.00 0.00 0.00 0.00 0.00 0.00
0.00 0.00 0.00 0.00 0.00 0.00 0.00 0.00 0.00 0.00 0.00 0.00 0.00 0.00 0.00 0.00 0.00 0.00 0.00 0.00 0.00 0.00 0.00 0.00 0.00 0.00 0.00 0.00 0.00 0.00 0.00 0.00 0.00 0.00 0.00 0.01 0.00 0.00 0.00 0.00 0.00 0.00 0.00 0.00
0.00 0.00 0.00 0.00 0.00 0.00 0.00 0.00 0.00 0.00 0.00 0.00 0.00 0.00 0.00 0.00 0.00 0.00 0.00 0.00 0.00 0.00 0.00 0.00 0.00 0.00 0.00 0.00 0.00 0.00 0.00 0.00 0.00 0.00 0.00 0.00 0.00 0.00 0.00 0.00 0.00 0.00 0.00 0.00
0.00 0.00 0.00 0.00 0.00 0.00 0.00 0.00 0.00 0.00 0.00 0.00 0.00 0.00 0.00 0.00 0.00 0.00 0.00 0.00 0.00 0.00 0.00 0.00 0.00 0.00 0.00 0.00 0.00 0.00 0.00 0.00 0.00 0.00 0.00 0.00 0.00 0.00 0.00 0.00 0.00 0.00 0.00 0.00
0.00 0.00 0.00 0.00 0.00 0.00 0.00 0.00 0.00 0.00 0.00 0.00 0.00 0.00 0.00 0.00 0.00 0.00 0.00 0.00 0.00 0.00 0.01 0.00 0.00 0.00 0.00 0.00 0.00 0.00 0.00 0.00 0.00 0.00 0.00 0.00 0.00 0.00 0.00 0.00 0.00 0.00 0.00 0.00
0.00 0.00 0.00 0.00 0.00 0.00 0.00 0.00 0.00 0.00 0.00 0.00 0.00 0.00 0.00 0.00 0.00 0.00 0.00 0.01 0.01 0.02 0.01 0.00 0.00 0.00 0.00 0.00 0.00 0.00 0.00 0.00 0.00 0.00 0.00 0.00 0.00 0.00 0.00 0.00 0.00 0.00 0.00 0.00
MSLP
1019.01 1018.60 1017.97 1017.65 1017.24 1017.15 1017.21 1017.07 1016.94 1016.70 1016.17 1015.51 1015.06 1014.69 1014.33 1013.44 1011.73 1010.30 1009.17 1008.05 1007.39 1006.70 1005.74 1004.52 1003.63 1003.08 1002.59 1001.87 1001.65 1001.27 1001.57 1002.54 1002.52 1002.58 1003.41 1004.03 1004.27 1004.06 1005.17 1005.64 1006.04 1006.96 1007.80 1008.42
1019.12 1018.53 1018.04 1017.54 1016.92 1016.90 1016.73 1016.67 1016.61 1016.26 1015.97 1015.82 1015.24 1014.93 1014.65 1014.09 1013.25 1011.91 1010.68 1009.60 1008.77 1007.69 1006.75 1005.85 1005.13 1004.47 1003.99 1003.72 1003.26 1003.06 1003.27 1003.78 1003.68 1003.81 1004.35 1004.62 1004.70 1005.38 1005.97 1006.64 1007.51 1007.95 1008.36 1008.91
1019.34 1018.76 1018.14 1017.66 1016.54 1016.57 1016.35 1016.39 1016.41 1016.25 1015.98 1015.92 1015.56 1015.08 1015.32 1014.99 1014.49 1013.64 1012.29 1011.11 1010.01 1009.28 1008.57 1007.87 1007.10 1006.73 1006.47 1006.14 1005.72 1005.59 1005.64 1005.57 1005.37 1005.65 1006.04 1006.31 1006.70 1006.78 1007.25 1007.98 1008.34 1009.06 1009.76 1009.77
1019.55 1018.90 1018.24 1016.96 1016.18 1016.01 1016.14 1015.97 1016.03 1015.96 1016.06 1015.80 1015.82 1015.80 1016.00 1015.83 1015.57 1014.93 1014.04 1013.15 1012.15 1011.49 1010.60 1009.98 1009.32 1008.73 1008.51 1008.22 1007.90 1007.82 1007.84 1007.89 1007.83 1007.88 1008.09 1008.38 1008.43 1008.79 1009.10 1009.49 1009.69 1010.17 1010.81 1010.84
1019.74 1019.45 1017.94 1016.78 1016.05 1015.88 1015.95 1015.53 1015.57 1015.86 1016.10 1015.97 1015.86 1016.10 1016.35 1016.50 1016.34 1016.14 1015.79 1015.19 1014.50 1013.64 1012.82 1011.94 1011.22 1011.00 1010.33 1010.09 1010.33 1010.13 1010.15 1009.94 1009.87 1009.96 1010.04 1010.21 1010.45 1010.61 1010.69 1010.56 1010.78 1011.08 1011.86 1012.05
1020.10 1019.18 1017.64 1016.07 1015.44 1015.41 1015.72 1015.53 1015.22 1015.65 1016.07 1016.10 1016.33 1016.93 1017.32 1017.33 1017.16 1016.93 1016.62 1016.26 1015.79 1015.25 1014.68 1013.85 1013.50 1012.81 1011.87 1012.28 1012.19 1012.29 1012.39 1012.08 1011.89 1011.73 1011.64 1011.90 1011.93 1011.95 1012.09 1012.22 1012.57 1012.57 1012.65 1012.96
1019.92 1019.10 1017.05 1015.75 1015.44 1015.93 1016.22 1015.68 1015.03 1015.55 1015.95 1016.36 1016.99 1017.43 1017.46 1017.53 1017.50 1017.43 1017.17 1016.87 1016.50 1015.87 1015.57 1015.33 1014.69 1014.41 1014.31 1014.30 1013.84 1013.99 1013.51 1013.18 1013.16 1013.01 1012.94 1013.02 1013.13 1013.17 1013.34 1013.19 1013.13 1013.38 1013.80 1014.17
1019.48 1018.67 1016.86 1015.58 1016.08 1015.89 1015.01 1015.09 1015.35 1015.82 1016.06 1016.41 1016.83 1017.40 1017.60 1017.76 1017.93 1017.88 1017.75 1017.56 1017.44 1017.32 1016.88 1016.58 1015.96 1015.67 1015.83 1015.83 1015.68 1015.22 1015.17 1014.88 1014.50 1014.64 1014.60 1014.45 1014.22 1014.34 1014.36 1014.44 1014.59 1014.69 1014.60 1014.95
1018.19 1016.53 1015.40 1015.21 1014.93 1014.63 1014.71 1015.11 1015.68 1015.94 1016.14 1016.38 1016.83 1017.12 1017.49 1017.89 1018.07 1018.12 1018.27 1018.16 1018.13 1017.84 1017.84 1017.74 1017.42 1017.27 1017.21 1017.22 1016.61 1016.59 1016.52 1016.26 1016.02 1015.86 1015.96 1015.85 1015.49 1015.52 1015.58 1015.58 1015.69 1016.01 1015.95 1015.85
1017.59 1015.24 1015.01 1014.87 1014.60 1014.68 1014.86 1015.02 1015.22 1015.56 1015.93 1016.40 1016.73 1017.05 1017.36 1017.80 1018.03 1018.13 1018.21 1018.18 1018.20 1018.14 1018.31 1018.58 1018.31 1017.84 1018.17 1017.69 1017.07 1017.35 1017.42 1016.86 1016.81 1016.81 1017.00 1016.67 1016.51 1016.48 1016.69 1016.62 1016.69 1016.54 1016.63 1016.63
1016.40 1014.97 1014.75 1014.26 1013.89 1013.93 1014.49 1014.82 1015.09 1015.31 1015.61 1016.00 1016.53 1016.98 1017.25 1017.51 1017.70 1017.90 1018.05 1018.24 1018.37 1018.45 1018.49 1018.50 1018.10 1017.73 1017.72 1017.65 1017.49 1017.39 1017.51 1017.77 1017.69 1017.52 1017.81 1017.62 1017.22 1017.36 1017.57 1017.49 1017.36 1017.04 1017.06 1017.05
1014.26 1012.82 1013.02 1012.93 1012.66 1013.34 1014.06 1014.43 1014.81 1015.24 1015.72 1016.03 1016.38 1016.52 1016.74 1017.15 1017.37 1017.59 1017.85 1018.02 1018.14 1018.26 1018.29 1018.49 1018.53 1018.59 1018.94 1018.83 1018.24 1018.50 1018.97 1018.70 1018.44 1018.40 1018.59 1018.21 1018.05 1018.25 1018.28 1018.24 1017.90 1017.60 1017.39 1017.28
1012.38 1011.99 1012.11 1012.17 1012.36 1012.77 1013.38 1013.91 1014.39 1014.84 1015.21 1015.75 1016.09 1016.34 1016.63 1017.02 1017.29 1017.54 1017.87 1018.07 1018.26 1018.46 1018.58 1018.81 1018.97 1019.05 1019.14 1019.00 1018.88 1018.94 1018.79 1018.74 1018.90 1018.82 1018.78 1018.83 1018.67 1018.82 1019.10 1018.70 1018.51 1018.30 1018.02 1017.63
1012.75 1012.56 1012.50 1012.13 1011.92 1012.40 1012.81 1013.27 1013.75 1014.21 1014.66 1015.10 1015.45 1015.83 1016.21 1016.63 1017.06 1017.37 1017.68 1017.86 1017.96 1018.09 1018.38 1018.56 1018.73 1018.79 1018.78 1018.72 1018.73 1018.91 1018.91 1019.05 1019.14 1019.16 1019.37 1019.42 1019.65 1019.68 1019.67 1019.68 1019.43 1019.06 1018.69 1018.41
1012.61 1012.33 1012.08 1011.72 1011.75 1012.08 1012.69 1013.21 1013.60 1013.94 1014.36 1014.81 1014.97 1015.33 1015.88 1016.32 1016.61 1016.86 1017.12 1017.46 1017.73 1017.91 1018.04 1018.22 1018.38 1018.39 1018.39 1018.47 1018.66 1018.88 1018.88 1018.99 1019.22 1019.48 1019.58 1019.50 1019.71 1019.80 1019.86 1019.73 1019.63 1019.48 1019.16 1018.95
1012.19 1012.06 1012.04 1011.97 1011.88 1012.20 1012.49 1012.98 1013.30 1013.69 1014.18 1014.42 1014.82 1015.21 1015.37 1015.76 1016.20 1016.70 1017.09 1017.26 1017.56 1017.60 1017.65 1017.77 1017.96 1018.09 1018.30 1018.46 1018.62 1018.68 1018.79 1018.80 1019.05 1019.41 1019.59 1019.81 1019.98 1020.05 1019.92 1019.81 1019.66 1019.49 1019.31 1019.12
1012.23 1011.86 1011.95 1011.82 1011.94 1012.01 1012.17 1012.30 1012.46 1012.76 1013.36 1013.96 1014.13 1014.55 1014.98 1015.35 1015.68 1016.04 1016.44 1016.68 1016.82 1016.89 1016.99 1017.12 1017.18 1017.21 1017.47 1017.75 1017.97 1018.41 1018.73 1019.04 1019.07 1019.51 1019.73 1019.89 1019.89 1019.82 1019.77 1019.74 1019.74 1019.70 1019.48 1019.22
1011.10 1010.95 1010.81 1010.74 1011.11 1011.41 1011.63 1011.81 1012.08 1012.43 1012.85 1012.95 1013.62 1014.22 1014.71 1015.08 1015.34 1015.65 1015.97 1016.26 1016.55 1016.82 1016.96 1017.06 1017.17 1017.28 1017.54 1017.85 1018.20 1018.49 1018.77 1019.01 1019.25 1019.49 1019.63 1019.61 1019.58 1019.61 1019.65 1019.64 1019.60 1019.46 1019.25 1018.94
1011.00 1010.98 1010.76 1010.76 1010.56 1010.68 1010.86 1011.17 1011.41 1011.68 1012.28 1012.79 1013.47 1013.93 1014.17 1014.55 1014.99 1015.49 1015.98 1016.49 1016.80 1016.99 1016.73 1016.88 1017.05 1017.28 1017.47 1017.59 1017.90 1018.24 1018.60 1018.95 1019.14 1019.26 1019.29 1019.30 1019.31 1019.37 1019.37 1019.31 1019.13 1019.06 1018.90 1018.73
1010.73 1010.54 1010.45 1010.52 1010.58 1010.72 1010.79 1010.71 1010.96 1011.32 1011.64 1012.30 1012.95 1013.61 1014.03 1014.29 1014.84 1015.44 1015.93 1016.18 1016.16 1016.15 1016.23 1016.45 1016.83 1017.05 1017.06 1017.23 1017.41 1017.77 1018.19 1018.56 1018.79 1018.87 1018.93 1018.93 1018.91 1018.92 1018.99 1019.01 1019.07 1019.02 1018.87 1018.70
1010.89 1010.73 1010.53 1010.32 1010.34 1010.38 1010.46 1010.55 1010.85 1011.11 1011.17 1011.60 1012.13 1012.61 1013.05 1013.65 1014.38 1014.95 1015.62 1015.84 1015.38 1015.55 1015.73 1015.98 1016.21 1016.37 1016.69 1016.82 1017.05 1017.30 1017.65 1017.99 1018.20 1018.17 1018.31 1018.44 1018.56 1018.62 1018.71 1018.70 1018.75 1018.62 1018.55 1018.53
1011.31 1010.97 1010.49 1010.23 1010.08 1009.82 1009.91 1010.22 1010.44 1010.63 1010.88 1011.25 1011.61 1012.01 1012.59 1013.21 1013.80 1014.19 1014.25 1014.49 1014.76 1014.73 1015.11 1015.41 1015.52 1015.46 1015.81 1016.28 1016.56 1016.74 1016.90 1017.19 1017.28 1017.58 1017.79 1017.99 1018.17 1018.28 1018.32 1018.43 1018.41 1018.36 1018.29 1018.29
1011.33 1011.11 1010.78 1010.58 1010.22 1009.75 1009.55 1009.34 1009.48 1009.93 1010.21 1010.47 1010.81 1011.22 1011.69 1012.09 1012.80 1013.64 1013.97 1013.71 1014.02 1014.34 1014.61 1014.91 1015.12 1015.29 1015.45 1015.63 1016.00 1016.27 1016.50 1016.68 1016.83 1017.07 1017.36 1017.47 1017.57 1017.80 1018.00 1018.01 1018.07 1018.00 1017.94 1017.86
1011.11 1010.79 1010.38 1010.17 1010.09 1010.07 1009.82 1009.32 1009.38 1009.17 1009.13 1009.52 1009.87 1010.30 1011.14 1012.03 1012.49 1012.64 1012.88 1013.11 1013.49 1013.83 1014.13 1014.32 1014.61 1014.73 1014.91 1015.18 1015.50 1015.92 1016.09 1016.16 1016.32 1016.40 1016.60 1016.72 1016.94 1017.21 1017.57 1017.66 1017.77 1017.63 1017.73 1017.74
1010.58 1010.42 1010.24 1010.14 1009.83 1009.50 1009.50 1009.24 1009.34 1009.31 1009.17 1009.23 1009.43 1009.73 1010.05 1010.73 1011.29 1011.86 1012.39 1012.86 1013.14 1013.48 1013.82 1013.98 1014.02 1014.25 1014.24 1014.55 1014.90 1015.22 1015.41 1015.62 1015.83 1015.88 1016.12 1016.44 1016.67 1016.93 1017.18 1017.41 1017.45 1017.53 1017.59 1017.58
1009.98 1009.67 1009.23 1009.02 1008.98 1008.80 1008.47 1008.56 1008.87 1009.04 1009.10 1009.11 1009.42 1009.70 1009.93 1010.32 1010.83 1011.33 1011.86 1012.29 1012.66 1013.08 1013.37 1013.62 1013.86 1013.97 1014.15 1014.33 1014.62 1015.00 1015.34 1015.45 1015.58 1015.75 1015.88 1016.22 1016.48 1016.68 1016.93 1017.13 1017.24 1017.30 1017.28 1017.43
1008.37 1008.25 1008.08 1007.94 1007.68 1007.32 1007.44 1007.65 1007.83 1007.97 1008.13 1008.25 1008.90 1009.26 1009.47 1010.11 1010.66 1011.15 1011.51 1011.98 1012.26 1012.68 1013.28 1013.54 1013.73 1013.82 1014.12 1014.45 1014.72 1014.99 1015.14 1015.41 1015.57 1015.73 1015.78 1016.06 1016.47 1016.70 1016.89 1017.02 1017.17 1017.26 1017.45 1017.37
Thickness
5493 5492 5497 5494 5494 5492 5480 5494 5475 5492 5489 5491 5490 5490 5486 5491 5505 5515 5521 5526 5527 5531 5536 5545 5550 5550 5554 5562 5565 5571 5572 5572 5577 5584 5585 5590 5596 5610 5611 5615 5620 5619 5617 5617
5491 5498 5500 5504 5504 5499 5499 5501 5498 5498 5498 5492 5498 5500 5495 5496 5500 5509 5517 5522 5525 5532 5539 5544 5553 5558 5564 5565 5567 5570 5571 5572 5576 5581 5584 5589 5597 5599 5603 5604 5602 5605 5606 5604
5488 5497 5497 5494 5510 5505 5509 5504 5499 5499 5505 5497 5501 5506 5497 5496 5500 5505 5513 5522 5529 5532 5536 5540 5547 5552 5554 5555 5559 5562 5563 5567 5570 5572 5575 5579 5583 5588 5589 5589 5591 5588 5586 5590
5481 5498 5498 5514 5519 5518 5513 5513 5509 5508 5505 5503 5505 5505 5502 5498 5498 5503 5508 5514 5520 5524 5531 5535 5540 5545 5546 5550 5554 5554 5555 5558 5561 5562 5564 5567 5572 5572 5574 5575 5578 5577 5575 5577
5491 5485 5506 5514 5519 5518 5515 5526 5516 5513 5507 5507 5510 5506 5509 5500 5499 5498 5500 5504 5509 5515 5520 5526 5533 5535 5540 5541 5539 5541 5542 5547 5551 5553 5556 5558 5559 5561 5565 5570 5569 5568 5564 5564
5483 5489 5515 5526 5526 5526 5525 5521 5524 5519 5516 5512 5514 5500 5496 5495 5497 5497 5499 5502 5505 5509 5513 5520 5523 5527 5535 5530 5530 5531 5531 5536 5541 5545 5550 5550 5552 5555 5557 5558 5557 5559 5559 5557
5492 5480 5507 5523 5525 5520 5522 5533 5528 5524 5519 5516 5507 5499 5500 5501 5501 5500 5502 5504 5507 5513 5514 5515 5523 5526 5525 5524 5529 5529 5534 5538 5539 5542 5545 5545 5545 5545 5544 5547 5551 5550 5547 5545
5496 5504 5515 5528 5526 5527 5537 5533 5530 5525 5522 5519 5512 5507 5508 5506 5505 5505 5505 5507 5507 5508 5510 5511 5516 5519 5516 5514 5518 5522 5524 5526 5532 5529 5530 5533 5537 5537 5536 5535 5535 5534 5535 5530
5522 5534 5545 5539 5553 5547 5544 5540 5534 5530 5528 5525 5520 5519 5517 5512 5511 5509 5508 5507 5507 5509 5508 5507 5511 5512 5511 5511 5516 5515 5514 5518 5521 5523 5522 5522 5525 5525 5525 5523 5520 5514 5513 5512
5543 5559 5547 5551 5553 5553 5548 5550 5545 5542 5536 5531 5531 5527 5524 5519 5516 5516 5515 5514 5513 5513 5510 5507 5510 5513 5508 5512 5517 5511 5508 5516 5515 5514 5510 5514 5516 5515 5512 5512 5508 5506 5503 5500
5539 5553 5555 5559 5561 5565 5559 5557 5552 5548 5546 5542 5537 5532 5529 5526 5524 5522 5520 5518 5515 5514 5512 5512 5514 5516 5514 5512 5511 5512 5510 5505 5505 5506 5503 5504 5506 5502 5496 5493 5492 5492 5488 5483
5576 5584 5584 5586 5580 5572 5567 5564 5558 5553 5549 5546 5542 5540 5538 5533 5530 5527 5524 5521 5520 5517 5516 5512 5510 5507 5500 5498 5504 5499 5491 5494 5496 5493 5489 5492 5490 5484 5481 5477 5476 5473 5469 5465
5601 5591 5587 5590 5584 5577 5575 5569 5564 5559 5556 5548 5545 5542 5539 5534 5529 5528 5522 5519 5516 5514 5510 5506 5502 5499 5495 5494 5493 5491 5491 5489 5485 5483 5480 5476 5474 5469 5462 5460 5457 5453 5447 5443
5582 5585 5590 5587 5595 5579 5579 5574 5570 5563 5558 5554 5550 5545 5542 5536 5531 5525 5520 5517 5514 5512 5507 5503 5499 5496 5493 5491 5488 5484 5481 5480 5474 5470 5466 5461 5454 5449 5442 5435 5430 5426 5423 5416
5574 5577 5586 5587 5584 5579 5575 5569 5566 5562 5558 5553 5551 5548 5541 5536 5533 5528 5522 5515 5511 5508 5505 5501 5498 5496 5492 5488 5483 5478 5474 5468 5463 5458 5454 5450 5443 5436 5428 5422 5415 5407 5400 5392
5575 5574 5574 5579 5578 5571 5570 5565 5565 5560 5553 5552 5547 5542 5540 5536 5530 5522 5514 5510 5507 5505 5501 5497 5492 5488 5483 5478 5474 5471 5467 5464 5458 5450 5443 5436 5428 5421 5415 5409 5402 5393 5384 5373
5574 5571 5567 5568 5569 5567 5566 5566 5566 5562 5553 5546 5544 5539 5534 5530 5525 5520 5514 5509 5506 5503 5498 5494 5490 5486 5481 5476 5471 5464 5457 5450 5445 5435 5427 5421 5415 5410 5403 5395 5385 5373 5363 5353
5576 5580 5577 5574 5569 5565 5562 5561 5558 5554 5550 5549 5540 5532 5527 5522 5520 5515 5510 5504 5499 5494 5490 5486 5482 5477 5471 5465 5458 5452 5445 5439 5431 5423 5416 5411 5404 5397 5388 5379 5368 5356 5347 5336
5565 5565 5569 5567 5567 5565 5563 5558 5555 5551 5545 5538 5530 5525 5522 5517 5513 5507 5499 5493 5487 5483 5483 5478 5474 5469 5463 5458 5451 5443 5435 5427 5419 5412 5405 5400 5390 5382 5372 5363 5354 5344 5333 5319
5560 5560 5561 5561 5558 5555 5553 5552 5549 5544 5540 5533 5526 5519 5513 5509 5504 5496 5489 5485 5483 5479 5476 5471 5464 5459 5456 5450 5444 5435 5426 5417 5408 5401 5393 5386 5378 5369 5360 5351 5338 5325 5312 5302
5548 5548 5549 5551 5551 5548 5547 5544 5540 5538 5534 5530 5525 5520 5514 5505 5496 5488 5477 5473 5477 5472 5467 5462 5456 5451 5444 5439 5433 5425 5416 5408 5399 5393 5384 5375 5365 5356 5344 5334 5322 5311 5299 5288
5532 5534 5537 5539 5539 5540 5537 5533 5530 5529 5524 5519 5514 5507 5501 5495 5488 5482 5479 5475 5469 5467 5458 5452 5447 5445 5438 5431 5423 5416 5410 5402 5394 5384 5374 5363 5352 5342 5332 5321 5309 5297 5286 5275
5518 5519 5522 5522 5523 5527 5524 5525 5522 5517 5514 5511 5506 5500 5496 5491 5483 5473 5468 5467 5460 5455 5449 5443 5437 5432 5427 5419 5411 5405 5398 5391 5382 5372 5362 5353 5343 5332 5320 5310 5297 5285 5274 5266
5508 5510 5512 5512 5509 5504 5507 5507 5504 5506 5506 5499 5496 5491 5482 5471 5465 5463 5458 5455 5449 5443 5437 5433 5426 5422 5416 5407 5401 5393 5386 5380 5372 5364 5353 5345 5334 5322 5308 5296 5283 5273 5262 5254
5498 5496 5491 5489 5492 5494 5490 5488 5483 5482 5484 5482 5478 5474 5470 5462 5458 5450 5443 5437 5433 5427 5422 5418 5415 5410 5405 5399 5392 5385 5378 5370 5362 5354 5344 5332 5321 5309 5296 5282 5271 5261 5252 5243
5485 5485 5484 5482 5482 5480 5478 5471 5469 5464 5462 5462 5458 5453 5449 5445 5440 5435 5429 5423 5417 5414 5408 5404 5398 5395 5390 5386 5380 5372 5363 5355 5348 5339 5331 5319 5308 5297 5285 5272 5261 5253 5245 5236
5468 5470 5463 5461 5461 5463 5459 5455 5452 5449 5447 5445 5442 5435 5433 5426 5421 5416 5413 5407 5405 5397 5392 5387 5383 5380 5374 5369 5363 5356 5350 5342 5336 5328 5321 5309 5295 5284 5273 5262 5253 5246 5237 5229